Theta_e
318 318 318 318 318 318 318 318 317 317 316 316 316 316 316 317 317 317 327 328 338 342 348 355 353 353 351 353 350 350 354 350 350 350 350 347 346 346 343 343 345 345 347 348 347
319 319 319 318 319 319 319 319 318 317 317 316 316 316 317 317 318 326 325 320 329 338 355 353 352 353 351 351 351 353 353 351 350 350 349 346 346 345 346 344 344 346 348 347 347
320 320 320 319 319 319 319 319 319 318 317 316 316 316 317 317 326 332 323 320 328 342 349 345 347 351 351 349 347 345 350 350 350 350 348 346 346 345 345 345 343 347 348 347 347
319 320 320 320 319 319 320 319 319 318 318 317 316 317 317 318 338 340 320 322 330 344 345 346 348 348 346 347 347 349 348 349 349 350 348 349 347 345 346 342 343 345 346 347 346
317 318 318 319 319 319 320 320 320 319 318 317 316 317 317 328 335 327 320 321 331 349 344 344 343 345 345 345 345 347 348 348 349 349 349 349 348 346 346 341 341 343 344 345 345
316 317 317 318 319 319 320 320 320 319 318 317 316 317 321 329 338 326 326 323 344 344 343 340 341 339 343 342 342 342 345 347 348 350 349 350 350 348 347 343 341 342 341 341 341
316 317 317 317 318 318 319 320 320 318 318 317 316 317 328 327 341 338 342 343 341 342 340 339 339 340 342 343 338 343 348 348 349 350 351 350 353 352 348 346 343 344 343 341 341
316 316 317 317 318 318 319 321 319 322 323 319 317 317 328 329 340 340 341 341 340 341 338 337 336 339 342 341 340 345 345 352 349 350 351 352 357 351 349 348 347 344 345 344 341
316 316 316 317 317 318 320 320 323 327 322 318 320 328 328 320 340 339 340 339 340 341 338 338 336 340 341 343 343 338 339 342 349 348 350 353 354 351 350 349 347 346 346 346 344
317 317 316 316 317 318 320 322 327 327 323 322 327 325 327 324 335 338 338 336 339 339 336 335 336 342 344 342 341 336 337 339 346 348 350 353 353 351 349 349 348 346 345 346 346
319 318 317 317 317 319 320 325 328 330 331 331 328 325 325 326 332 337 335 331 332 334 337 336 341 343 344 337 335 334 336 339 341 346 350 352 352 352 349 349 349 347 345 345 346
321 319 317 317 318 320 323 329 328 327 330 327 329 327 328 326 329 331 332 330 332 335 335 341 343 343 338 335 333 334 334 337 340 340 347 349 352 352 350 349 350 348 346 344 345
320 318 318 318 318 320 327 328 326 326 329 327 325 325 327 327 328 328 330 330 332 333 336 342 340 338 337 335 334 334 333 334 337 340 345 345 352 354 351 349 349 349 348 344 344
322 318 318 318 322 326 327 326 326 327 332 329 326 326 327 327 329 328 327 330 332 332 336 339 339 338 337 337 334 333 331 333 337 339 346 340 352 353 354 352 351 350 349 346 342
323 320 318 320 325 327 328 326 326 328 334 328 326 327 327 329 329 328 328 329 333 333 336 337 337 337 336 336 334 332 331 332 334 337 339 344 351 354 352 355 353 349 349 348 344
322 321 318 318 321 327 325 326 326 333 334 328 328 328 329 329 329 328 328 329 332 333 333 335 332 332 334 334 333 331 331 333 334 337 344 341 348 349 353 352 353 350 349 348 346
322 320 320 323 328 325 326 328 334 335 331 328 327 328 329 329 329 329 329 330 333 332 332 331 333 333 332 333 334 333 332 333 334 337 352 343 348 347 346 346 349 351 350 349 347
321 321 321 322 325 324 327 333 335 330 330 330 329 329 329 329 330 330 330 331 331 330 331 329 329 330 333 333 335 334 333 333 335 335 340 338 349 349 347 344 346 349 350 349 349
326 330 331 329 326 327 331 339 334 332 330 330 330 330 331 330 330 330 331 331 331 329 330 330 330 329 330 331 333 333 333 333 332 332 335 341 349 347 349 348 346 347 349 350 349
325 333 332 329 328 329 335 330 333 331 330 331 332 332 330 330 330 331 332 335 336 334 331 332 331 330 329 329 330 332 333 331 331 334 336 343 346 346 347 352 351 348 349 350 349
330 334 332 330 330 334 336 335 334 332 333 334 333 334 334 332 331 333 334 336 335 335 334 331 330 331 331 331 332 331 331 331 332 332 332 334 348 344 346 351 353 351 350 350 350
335 337 333 331 336 334 335 334 332 333 333 334 334 335 336 335 333 334 335 338 334 334 331 331 331 333 333 335 335 333 335 334 333 336 334 333 349 348 348 347 352 355 353 353 351
337 334 333 334 339 334 334 333 333 334 334 334 334 334 335 336 337 337 336 334 334 335 336 332 329 332 334 333 333 333 334 333 332 332 332 334 347 350 351 353 354 358 357 353 354
336 337 333 332 332 334 335 334 334 333 334 334 335 333 334 334 335 337 336 335 334 334 331 332 330 332 335 336 334 333 335 333 332 332 334 336 348 352 354 357 356 361 366 355 353
334 336 336 337 335 334 334 335 335 336 334 334 336 335 335 336 335 336 336 336 335 334 336 335 334 334 333 335 334 334 335 335 334 334 336 335 337 353 356 358 356 358 363 368 359
336 337 335 334 334 335 329 336 335 334 334 336 336 335 334 337 337 339 336 337 337 337 336 336 335 336 335 334 334 334 334 334 335 335 336 335 343 350 353 355 356 356 357 363 363
328 332 335 331 334 334 337 335 334 333 333 331 331 331 333 336 334 333 333 333 334 335 336 335 336 337 337 335 335 336 335 335 336 337 337 338 348 346 349 352 355 354 354 356 354
Wind_Speed
13 13 13 13 13 12 12 11 11 10 9 7 6 6 4 4 4 3 1 4 5 7 9 8 6 4 5 9 10 2 5 7 9 5 11 10 12 7 11 14 12 4 25 28 26
13 13 13 14 13 12 12 12 11 10 9 7 5 5 3 3 4 8 10 8 6 8 12 8 7 9 10 8 4 10 6 6 13 8 13 12 11 11 10 7 11 19 25 26 25
14 14 13 14 14 12 12 12 11 10 9 7 5 4 2 2 3 5 10 7 8 9 7 3 4 11 18 8 5 8 6 8 10 6 10 13 13 9 10 10 16 22 28 26 24
15 15 14 14 13 13 12 11 12 10 8 7 5 3 2 6 3 3 8 10 10 11 5 4 9 13 12 3 7 7 1 6 8 5 7 8 7 11 8 13 16 23 26 25 23
16 16 15 15 15 13 13 12 12 11 8 6 4 2 4 6 1 3 10 12 12 7 7 5 9 10 4 6 5 5 10 4 5 5 10 8 7 10 13 16 19 22 23 22 21
15 15 14 14 14 14 13 12 12 11 9 5 5 4 4 13 2 4 11 12 9 9 6 5 6 7 7 2 5 5 4 8 7 8 9 11 9 10 14 18 20 21 21 20 20
16 15 14 13 14 13 12 11 10 10 8 4 5 5 7 2 7 9 13 12 9 8 6 6 7 10 9 5 2 9 11 8 11 11 9 17 15 12 17 20 20 20 19 19 19
17 16 14 13 12 12 11 10 8 6 4 3 6 6 2 5 9 12 13 11 8 8 6 7 9 14 14 5 11 13 11 10 13 14 9 11 12 11 18 20 20 20 20 18 18
18 16 14 12 11 10 9 8 4 2 1 4 4 6 7 8 12 14 13 10 8 7 7 10 11 17 15 14 10 1 6 11 9 12 8 12 11 16 22 20 21 21 21 20 20
17 16 13 11 9 7 6 4 0 1 4 5 4 8 8 11 14 16 13 9 10 8 9 11 12 16 16 7 2 6 6 8 13 11 10 12 10 15 22 21 20 22 23 22 22
17 14 11 8 7 4 3 2 4 5 12 5 6 3 9 12 14 15 13 11 10 12 14 14 12 12 7 7 6 6 3 7 10 12 12 10 12 14 20 19 19 22 24 24 23
15 12 8 6 4 3 3 3 4 3 7 12 6 4 5 13 12 14 14 13 16 15 18 9 13 4 4 5 6 6 8 7 8 11 12 10 10 14 19 20 21 21 23 25 24
12 8 5 2 2 5 4 2 2 4 8 10 12 13 12 13 14 17 17 17 11 17 19 15 6 8 5 6 10 5 10 7 10 4 11 8 10 16 16 20 19 20 21 24 26
10 6 2 3 5 4 3 3 4 3 6 10 12 9 10 12 8 14 17 14 9 14 15 14 13 3 9 10 7 4 5 7 9 14 7 6 11 29 20 17 17 21 21 22 25
10 4 1 8 6 3 3 2 3 2 7 10 12 11 15 16 15 12 14 12 14 11 5 11 9 11 13 12 5 11 8 11 14 15 18 7 9 13 18 19 19 21 23 21 23
8 2 3 4 5 3 3 4 1 7 3 8 10 13 14 14 9 10 15 11 9 7 8 18 4 5 11 2 6 9 12 19 16 15 9 4 17 15 13 13 18 23 25 24 23
7 5 4 9 2 4 4 4 7 6 6 9 16 17 18 10 8 14 14 15 11 11 15 16 16 12 11 12 12 10 18 13 12 6 8 11 15 15 11 4 14 21 25 26 25
8 7 6 2 4 4 3 9 5 3 6 3 12 15 15 11 8 8 12 13 11 10 7 10 16 18 14 12 17 10 13 10 4 6 3 5 9 9 8 6 1 18 23 24 24
4 7 3 4 5 5 9 9 8 7 1 8 10 13 6 7 4 9 11 11 6 12 13 2 4 3 2 10 11 16 11 11 11 6 9 2 23 20 16 14 8 12 19 23 25
6 4 3 5 5 4 8 12 7 4 1 5 6 4 12 13 9 10 9 4 2 4 10 6 3 6 7 11 12 16 13 10 10 2 7 9 15 9 6 13 12 7 10 18 22
5 6 3 2 4 11 1 6 9 7 6 10 3 1 6 6 9 9 6 10 4 3 7 14 11 11 9 13 11 10 12 11 9 7 7 4 10 12 11 11 11 11 1 13 18
6 2 1 3 12 7 9 5 4 5 2 3 6 8 6 2 5 2 4 11 6 6 9 13 8 7 10 5 5 12 13 8 8 8 3 8 7 12 11 14 11 11 10 9 14
9 4 0 6 6 6 5 7 11 9 7 4 4 6 3 1 2 5 3 5 6 3 9 4 10 4 5 11 8 12 5 10 13 8 4 7 11 13 14 15 14 11 8 3 5
8 3 5 2 6 9 3 4 7 4 7 5 3 4 5 2 3 4 7 4 1 7 5 6 16 17 7 11 3 14 4 2 13 11 9 8 17 12 13 14 15 14 15 7 2
4 5 6 2 4 6 5 5 3 4 3 5 2 6 8 5 4 5 3 4 8 3 5 7 14 3 9 5 9 3 2 4 10 12 8 15 11 14 14 12 10 9 7 13 10
8 7 4 3 1 8 5 3 6 7 7 4 8 7 6 9 7 11 4 8 7 4 9 12 11 5 12 4 9 8 10 6 9 7 6 10 8 13 14 9 9 10 10 9 12
9 5 6 5 3 7 7 5 5 7 3 4 8 9 8 10 6 13 13 15 13 9 10 11 12 8 12 13 7 10 14 13 11 6 6 6 12 8 9 8 6 6 8 6 10
Wind_Direction
333 333 333 332 334 333 332 331 329 330 331 331 328 317 297 272 258 240 261 214 194 179 156 145 181 205 215 248 244 333 339 140 94 112 122 130 113 83 105 134 148 76 140 145 147
327 327 327 325 326 327 325 324 323 324 325 325 326 311 296 267 245 234 237 217 183 176 144 165 192 204 203 204 246 129 203 106 106 127 117 120 106 132 129 129 131 111 131 142 149
322 321 321 320 320 320 319 318 317 318 320 318 320 304 284 211 235 140 221 193 162 134 157 244 218 251 226 177 107 343 23 65 77 73 145 118 134 154 134 125 147 139 147 151 155
319 319 318 314 313 314 312 311 311 312 312 309 311 292 231 197 206 209 178 163 156 148 201 218 237 298 140 190 148 117 25 16 109 124 143 146 141 135 69 117 141 147 152 156 162
318 316 313 310 309 310 308 308 306 305 303 298 289 254 192 216 59 191 174 165 161 162 203 244 301 317 66 98 124 86 147 156 102 146 188 141 167 127 111 131 141 148 154 163 166
317 312 309 306 303 304 303 304 305 302 297 277 260 216 195 237 140 195 168 166 175 188 224 253 340 336 299 3 11 84 134 164 159 167 157 178 163 172 140 146 149 155 162 167 171
319 312 308 302 298 299 300 303 305 302 295 252 219 206 234 55 159 160 165 160 192 205 247 264 291 297 336 191 77 152 160 178 168 177 183 184 165 196 157 156 159 165 167 165 172
318 313 308 301 295 296 299 308 312 305 291 209 181 185 212 161 170 170 173 186 200 223 245 268 283 286 260 284 207 211 218 169 149 172 196 187 169 172 167 168 170 170 171 169 170
317 313 309 302 296 294 296 314 331 339 134 151 140 196 183 181 176 180 179 191 199 218 247 266 283 267 280 235 268 326 86 127 144 186 161 218 126 166 170 179 178 177 175 177 173
318 314 309 300 292 286 289 304 84 129 138 138 221 223 205 200 178 187 190 204 201 222 241 243 250 257 228 302 87 22 2 74 128 176 195 212 115 165 177 192 182 181 181 185 182
321 314 306 295 289 276 262 284 250 215 209 267 185 273 139 139 171 185 192 203 218 218 232 204 245 230 302 26 340 295 315 91 95 150 190 189 154 171 182 196 182 184 184 190 190
322 315 306 291 271 226 164 243 3 351 252 216 209 213 165 167 178 186 187 206 210 223 224 217 239 297 31 294 287 265 254 86 112 159 231 167 192 172 182 192 186 191 189 191 196
334 325 305 281 215 182 189 295 332 327 247 160 200 201 183 187 196 184 195 211 217 229 224 236 190 55 261 287 275 171 13 354 344 217 228 154 350 181 189 189 191 192 196 194 197
345 339 332 113 110 173 183 228 320 282 252 135 183 195 180 200 197 157 193 201 222 227 222 225 266 223 253 271 282 45 20 311 279 288 181 163 212 238 181 188 192 194 196 196 195
349 350 153 165 153 183 175 297 295 226 217 140 136 144 178 206 127 186 193 215 254 231 260 219 220 234 239 255 354 332 337 294 288 283 269 222 103 160 174 187 191 196 194 197 198
350 19 143 165 177 222 218 298 281 233 123 143 142 179 178 218 182 142 180 227 264 257 218 264 157 271 271 315 250 301 285 261 247 241 329 343 84 297 163 193 192 194 196 195 195
27 89 119 140 125 221 273 251 231 264 160 152 171 168 191 185 153 170 184 200 203 208 212 210 238 228 231 250 230 235 264 272 226 217 192 219 75 243 88 104 175 191 194 190 194
60 75 90 158 200 236 264 243 259 32 96 125 146 178 196 175 140 195 184 204 222 296 282 210 204 206 207 237 260 238 281 298 320 321 247 203 53 317 32 82 127 166 184 191 191
45 25 355 278 240 235 262 253 36 59 325 147 161 175 172 172 272 191 197 222 181 201 274 270 194 89 266 237 239 242 225 276 299 256 275 144 151 29 47 51 114 137 174 185 192
314 283 331 290 220 212 246 41 99 76 230 252 177 218 172 172 206 215 177 64 295 263 281 304 202 176 143 221 231 265 318 256 221 302 287 347 127 168 54 43 31 110 167 178 192
298 239 3 280 230 238 68 61 85 93 345 349 80 292 71 161 234 202 155 87 5 285 246 262 256 145 185 212 191 185 227 246 318 327 312 213 76 53 58 60 34 17 67 174 190
290 254 314 243 266 21 65 9 286 77 62 74 11 14 42 256 223 141 191 52 6 317 218 236 297 202 157 98 296 292 331 292 244 194 249 311 100 74 51 49 40 29 2 351 185
294 72 336 272 291 113 136 84 24 35 19 24 48 19 355 35 185 327 61 90 357 350 346 217 257 228 217 179 203 257 175 290 312 317 317 316 119 71 55 55 41 28 13 344 257
286 222 158 303 337 333 49 6 120 38 49 32 5 252 247 222 282 170 184 137 59 32 342 293 259 280 72 331 201 199 206 296 299 293 360 55 110 68 56 50 26 15 5 21 187
334 54 350 20 60 1 2 323 12 27 28 3 128 6 339 284 225 198 241 203 182 129 248 266 271 286 321 320 302 313 233 203 271 324 326 344 6 67 53 48 31 19 35 29 42
7 344 326 344 204 285 142 48 355 3 341 42 331 349 320 312 347 343 1 282 303 8 308 278 275 307 288 202 282 283 254 265 299 284 279 275 87 80 95 81 61 54 37 39 39
15 347 300 106 282 273 50 21 6 344 123 351 333 312 280 24 338 302 290 289 282 286 287 298 283 279 256 272 230 249 251 257 232 340 313 314 68 96 96 88 72 66 59 60 53